od-news.com alexa rank chart, od-news.com alexa rank daily changes

od-news.com alexa rank chart, od-news.com alexa rank daily changes

od-news.com
Actual rank:
339 900

RANK HISTORY

Date Rank Diff
2017/11/19 339 900 -19 927
2017/11/18 359 827 -16 000
2017/11/17 375 827 -5 992
2017/11/16 381 819 -4 267
2017/11/15 386 086 -14 181
2017/11/14 400 267 -29 547
2017/11/13 429 814 -28 567
2017/11/12 458 381 -25 701
2017/11/11 484 082 -47 310
2017/11/10 531 392 -35 170
2017/11/09 566 562 -38 143
2017/11/08 604 705 -66 705
2017/11/07 671 410 -40 250
2017/11/06 711 660 -1 685
2017/11/05 713 345 -1 354
2017/11/04 714 699 +27 117
2017/11/03 687 582 +63 515
2017/11/02 624 067 +46 523
2017/11/01 577 544 +8 883
2017/10/31 568 661 -1 714
2017/10/30 570 375 -21 292
2017/10/29 591 667 -932
2017/10/28 592 599 +645
2017/10/27 591 954 +21 177
2017/10/26 570 777 +43 611
2017/10/25 527 166 +21 390
2017/10/24 505 776 +17 681
2017/10/23 488 095 +2 898
2017/10/22 485 197 -16 537
2017/10/21 501 734 -3 010
2017/10/20 504 744 +5 879
2017/10/19 498 865 +30 298
2017/10/18 468 567 +59 450
2017/10/17 409 117 +1 843
2017/10/16 407 274 +20 530
2017/10/14 386 744 +4 617
2017/10/13 382 127 +2 103
2017/10/12 380 024 +7 600
2017/10/11 372 424 -34
2017/10/10 372 458 -831
2017/10/09 373 289 +7 513
2017/10/08 365 776 +1 846
2017/10/07 363 930 +7 276
2017/10/06 356 654 +9 601
2017/10/05 347 053 +6 115
2017/10/04 340 938 +1 635
2017/10/03 339 303 -14 299
2017/10/02 353 602 -11 707
2017/10/01 365 309 -4 191
2017/09/30 369 500 +458
2017/09/29 369 042 +785
2017/09/28 368 257 +552
2017/09/27 367 705 -6 625
2017/09/26 374 330 -15 353
2017/09/25 389 683 -16 346
2017/09/24 406 029 +143
2017/09/23 405 886 -2 984
2017/09/22 408 870 +6 285
2017/09/20 402 585

WIDGET FOR YOUR SITE

DOMAINS WITH THE NEAREST RANK

Domain Rank
zimagez.com 339 895
kurtkinetic.com 339 896
igsnrr.ac.cn 339 897
coque-unique.com 339 898
talesofpanchatantra.com 339 899
od-news.com 339 900
truemfg.com 339 901
dhport.com 339 902
krujah.com 339 903
newgensoft.com 339 904
canbike.org 339 905

DOMAINS WITH THE NEAREST RANK BY TLD .com

Domain Rank
miaset.com 339 892
zimagez.com 339 895
kurtkinetic.com 339 896
coque-unique.com 339 898
talesofpanchatantra.com 339 899
od-news.com 339 900
truemfg.com 339 901
dhport.com 339 902
krujah.com 339 903
newgensoft.com 339 904
torrent2magnet.com 339 908